User: anonymous   Login
Location: LDNL
(36.4545°S, 141.6685°E)
Time: 07:01:56
(UTC+11:00)
Language:

Tiros 1 despin weight - Orbit

View from above orbital plane
View from above orbital plane
View from above satellite
View from above satellite

Ground track
Ground track

The orbit data is extracted from the following two-line orbital elements,

1 00115U 60002D   22274.53921237  .00002524  00000-0  31830-3 0  9995
2 00115  48.1664 211.7149 0034392 334.7965  25.1269 14.84668688315981
Epoch (UTC): 01 October 2022 12:56:27
Eccentricity: 0.0034392
inclination: 48.1664°
perigee height: 590 km
apogee height: 638 km
right ascension of ascending node: 211.7149°
argument of perigee: 334.7965°
revolutions per day: 14.84668688
mean anomaly at epoch: 25.1269°
orbit number at epoch: 31598

The dashed part of the orbit path shows where the satellite is in the earth's shadow,  

DLR